Location: Glencliff
(36.1226°N, 86.7183°W)
Time: 09:42:41
(UTC+00:00)

Cosmos 1656 - Pass Details

Date: 25 August 2019
Orbit: 797 x 850 km, 71.1° (Epoch: 17 September)

Event Time Altitude Azimuth Distance (km) Brightness Sun altitude
Rises 02:13:01 0° 341° (NNW) 3,409 7.6 -20.8°
Reaches altitude 10° 02:15:30 10° 344° (NNW) 2,464 6.8 -21.2°
Maximum altitude 02:21:07 66° 67° (ENE) 907 3.6 -22.1°
Enters shadow 02:22:25 50° 124° (SE) 1,046 3.7 -22.4°
